THORAD DELTA 1 DEB, 8406

Orbit data source: Space-Track

THORAD DELTA 1 DEB, 8406 is space debris in SSO originally from a launch on Fri, 15 Nov 1974 UTC launched from the Air Force Western Test Range (AFWTR). Debris objects in space refer to the collection of defunct objects orbiting the Earth. Examples of debris include non-operational satellites, rocket bodies, and fragments generated from explosions, collisions, or faulty payload assembly.

Loading next visibility...
Identifier
8406, 1974-089CJ
Orbit
SSO
Country
Flag of USUS
Related business
Manufacturer
Unknown
Mission
Spacecraft
Bus & Motor
Unknown
Mass
Unknown
Launch date (UTC)
1974-11-15 (51 years ago)
Launch vehicle
Unknown
Launch site
Air Force Western Test Range (AFWTR)
Object type
Payload
Rocket body
Debris
Shape & HBR
Unknown shape, 0.2 m
Radar Cross Section
Small (<0.1 m²)

Expand to show TLE details & history
Last TLE update: 20 hours ago

TLE from 20 hours ago
0 THORAD DELTA 1 DEB
1 08406U 74089CJ  25350.07780053  .00000019  00000-0  36827-3 0  9990
2 08406 101.3270 210.8328 0013943 204.5003 312.5645 12.57802836339016
Epoch: 2025-12-16T01:52Z
TLE epoch observation values (Epoch: 2025-12-16T01:52:01.965Z)
Latitude
22.59637°
Longitude
-77.38414°
Altitude
1,427.133 km
Speed
7.153 km/s
True Right ascension
02h 22m 21s
True Declination
22° 29' 06"
Sunlit
Object was in full shadow at epoch
Visualization orbit readout
Latitude
Unknown
Longitude
Unknown
Altitude
Unknown
Speed
Unknown
Apparent Right ascension
Unknown
Apparent Declination
Unknown
Sunlit
N/A
Visualization observer readout
Local Sidereal Time
20:31:07
Azimuth
Unknown
Elevation
Unknown
Doppler factor
Unknown
Orbital elements
Apogee altitude
1,440.425 km
Perigee altitude
1,418.652 km
Semi-major axis
7,807.676 km
Eccentricity
0.00139
Inclination
101.327°
RAAN
210.8328°
Arg. of periapsis
204.5003°
True anomaly
312.44668°
Mean anomaly
312.5645°
Eccentric anomaly
312.50561°
Mean motion
3.14601 °/min
Orbital period
114.43 mins
BSTAR
0.00036827
Loading maneuver chart data...
Computing Atmospheric mass density...

Documentation

Showing up to 5 results
|